Flag for Germany Weather past 2 weeks in Forchheim, Bavaria, Germany

Now
68 °F

Partly sunny.


Feels Like: 68 °F
Forecast: 46 / 70 °F
Wind: 3 mph from Northwest

Location: Bamberg

Current Time: Oct 1, 2014 at 4:46:26 PM

Latest Report: Oct 1, 2014 at 4:00 PM


Visibility: 15 mi

Pressure: 30.27 "Hg

Humidity: 68%

Dew point: 57 °F

Location of ForchheimLocation

Historic Weather in Forchheim — Graph

°F

Forchheim temperature yesterday

Maximum temperature yesterday: 68 °F (at 1:00 PM)
Minimum temperature yesterday: 56 °F (at 12:00 AM)
Average temperature yesterday: 61 °F

Past Weeks' High & Low Weather Summary

 TemperatureHumidityPressure
High76 °F (Sep 29, 3:00 PM)100% (Sep 17, 12:00 AM)30.40 "Hg (Sep 17, 12:00 AM)
Low37 °F (Sep 24, 2:00 AM)54% (Sep 18, 3:00 PM)29.87 "Hg (Sep 18, 5:00 PM)
Average57 °F90%30.11 "Hg
* Reported Sep 16 3:00 PM — Oct 1 3:00 PM, Forchheim, Weather by CustomWeather, © 2014

Note: Actual official high and low records may vary slightly from our data, if they occured in-between our weather recording intervals... More about our weather records

Advertising

Forchheim weather history for previous 24 hours

 ConditionsComfort  
Time TempWeatherWind HumidityBarometerVisibility
3:00 PM
Oct 1
71 °FPassing clouds.2 mph63%30.27 "Hg15 mi
2:00 PM70 °FScattered clouds.1 mph64%30.29 "Hg16 mi
1:00 PM66 °FOvercast.1 mph80%30.32 "Hg11 mi
12:00 PM63 °FOvercast.1 mph86%30.32 "Hg6 mi
11:00 AM60 °FFog.1 mph97%30.32 "Hg4 mi
10:00 AM58 °FLow clouds.1 mph100%30.32 "Hg2 mi
9:00 AM57 °FLow clouds.2 mph100%30.31 "Hg2 mi
8:00 AM57 °FLow clouds.1 mph100%30.31 "Hg1 mi
7:00 AM57 °FLow clouds.No wind100%30.30 "Hg0 mi
6:00 AM56 °FLow clouds.1 mph100%30.30 "Hg0 mi
5:00 AM56 °FLow clouds.1 mph100%30.30 "Hg0 mi
4:00 AM56 °FLow clouds.No wind100%30.31 "Hg1 mi
3:00 AM56 °FLow clouds.1 mph100%30.31 "Hg0 mi
2:00 AM55 °FLow clouds.1 mph100%30.31 "Hg0 mi
1:00 AM54 °FOvercast.1 mph100%30.30 "Hg1 mi
12:00 AM55 °FOvercast.1 mph100%30.31 "Hg1 mi
11:00 PM
Sep 30
57 °FOvercast.1 mph100%30.30 "Hg1 mi
10:00 PM60 °FOvercast.1 mph100%30.29 "Hg4 mi
9:00 PM61 °FOvercast.1 mph99%30.28 "Hg6 mi
8:00 PM62 °FOvercast.1 mph96%30.28 "Hg7 mi
7:00 PM64 °FOvercast.1 mph93%30.27 "Hg10 mi
6:00 PM65 °FOvercast.1 mph85%30.26 "Hg18 mi
5:00 PM67 °FOvercast.1 mph81%30.26 "Hg19 mi
4:00 PM68 °FOvercast.2 mph73%30.26 "Hg19 mi
Weather by CustomWeather, © 2014

See weather overviewHow to use our weather pages